User: anonymous
Location: Unspecified
(0.0000°N, 0.0000°E)
Time: 13:49:53
(UTC+02:00)
Language:

Cosmos 494 Rocket - Orbit

View from above orbital plane
View from above orbital plane
View from above satellite
View from above satellite

Ground track
Ground track

The orbit data is extracted from the following two-line orbital elements,

1 06061U 72043B   14272.15386344  .00000292  00000-0  10039-3 0  5455
2 06061 074.0586 212.0366 0020999 234.2644 225.4363 14.40183928215484
Epoch (UTC): 29 September 2014 03:41:33
Eccentricity: 0.0020999
inclination: 74.0586°
perigee height: 743 km
apogee height: 773 km
right ascension of ascending node: 212.0366°
argument of perigee: 234.2644°
revolutions per day: 14.40183928
mean anomaly at epoch: 225.4363°
orbit number at epoch: 21548

The dashed part of the orbit path shows where the satellite is in the earth's shadow,  

DLR